Total_Precipitation_Accumulation
2.24 2.52 3.33 4.17 4.71 3.58 2.59 2.12 1.80 1.58 1.31 0.99 0.79 0.80 1.10 1.55 1.87 1.88 1.75 1.57 1.00 0.89 0.96 1.36 1.61 1.52 1.39 1.29 1.26 1.25 1.21 1.20 1.20 1.20 1.19 1.08 0.96 0.91 1.00 0.99 0.91 0.88 0.85 0.84 0.83 0.87 0.86 0.83 0.88
1.95 2.69 3.88 4.74 3.98 2.78 2.38 1.93 1.70 1.40 1.06 0.81 0.70 0.62 0.72 0.59 0.57 1.02 1.90 1.83 1.02 0.79 0.89 1.26 1.71 1.61 1.49 1.45 1.45 1.42 1.27 1.16 1.13 1.06 1.02 1.00 0.97 0.93 0.95 1.03 0.93 0.92 0.85 0.81 0.77 0.77 0.82 0.85 0.92
2.24 3.12 4.31 4.37 3.06 2.36 2.33 1.79 1.34 0.95 0.71 0.75 0.76 0.64 0.69 0.82 0.93 1.42 1.79 1.31 0.94 0.80 0.88 1.39 1.84 1.66 1.54 1.50 1.59 1.51 1.34 1.19 1.06 0.99 0.97 0.96 1.01 1.03 1.05 0.97 0.92 0.92 0.88 0.84 0.89 0.90 0.94 0.96 1.06
2.49 3.57 3.93 3.32 2.53 1.94 1.69 1.42 1.08 0.93 0.65 0.43 0.57 0.73 0.64 0.89 1.07 1.29 1.24 0.91 0.70 0.69 0.77 1.23 1.76 1.61 1.45 1.39 1.51 1.45 1.29 1.25 1.15 1.09 1.06 1.06 1.16 1.31 1.19 1.06 1.02 0.96 0.95 0.90 0.94 0.99 1.05 1.10 1.14
2.76 3.54 3.52 3.14 2.36 2.01 1.50 1.18 1.00 0.97 0.77 0.51 0.50 0.77 0.84 1.16 1.17 1.18 1.09 0.91 0.71 0.69 0.73 1.01 1.49 1.48 1.33 1.28 1.36 1.34 1.27 1.28 1.15 1.11 1.13 1.14 1.19 1.35 1.45 1.33 1.19 1.13 1.10 1.04 1.02 1.01 1.01 1.07 1.17
3.18 3.26 3.30 3.09 2.54 2.22 1.73 1.27 0.92 0.83 0.70 0.56 0.54 0.79 1.06 1.47 1.37 1.31 1.13 1.06 0.93 0.79 0.70 0.84 1.27 1.34 1.25 1.27 1.29 1.26 1.22 1.15 1.01 1.02 1.11 1.12 1.13 1.26 1.43 1.42 1.34 1.28 1.21 1.20 1.18 1.16 1.11 1.11 1.12
2.95 2.90 2.62 2.23 2.37 2.50 1.80 1.15 1.05 0.98 0.89 0.78 0.56 0.82 1.14 1.53 1.40 1.14 1.11 1.21 1.31 1.16 0.98 0.91 1.00 1.05 1.13 1.23 1.25 1.35 1.38 1.18 1.00 0.95 0.97 0.99 1.02 1.10 1.21 1.29 1.29 1.24 1.25 1.25 1.22 1.22 1.21 1.22 1.18
2.41 2.45 2.21 2.13 2.37 2.53 1.55 1.01 0.85 0.80 0.81 0.54 0.48 0.74 0.96 1.17 1.27 1.21 1.16 1.25 1.26 1.21 1.15 1.07 1.07 1.02 1.01 1.09 1.28 1.51 1.60 1.41 1.13 1.00 0.93 0.97 0.96 0.98 1.12 1.17 1.27 1.30 1.31 1.36 1.37 1.33 1.25 1.31 1.30
2.06 2.37 2.40 2.33 2.26 1.99 1.21 0.92 0.73 0.53 0.55 0.49 0.39 0.58 0.74 0.78 0.98 1.18 1.20 1.22 1.18 1.14 1.14 1.06 1.07 1.09 1.17 1.19 1.27 1.52 1.67 1.60 1.21 1.00 0.97 0.89 0.76 0.90 1.01 0.99 1.28 1.42 1.51 1.52 1.52 1.44 1.32 1.29 1.28
2.10 2.29 2.15 1.75 1.55 1.28 0.98 0.85 0.69 0.71 0.79 0.68 0.51 0.59 0.75 0.81 0.89 1.05 1.10 1.01 0.97 0.96 0.98 0.98 0.96 0.93 0.96 1.00 1.32 1.54 1.42 1.48 1.19 1.12 1.04 0.96 0.99 1.04 0.92 0.91 1.20 1.41 1.53 1.52 1.47 1.44 1.33 1.15 0.97
1.77 1.87 1.54 1.34 1.14 0.92 0.86 0.81 0.62 0.73 0.90 0.70 0.52 0.58 0.73 0.84 0.94 0.95 0.97 0.91 0.84 0.85 0.76 0.73 0.75 0.72 0.74 0.83 1.00 1.27 1.50 1.53 1.46 1.39 1.29 1.24 1.15 0.99 0.89 0.91 0.98 1.13 1.22 1.15 1.23 1.24 1.14 1.04 0.97
1.54 1.47 1.28 1.15 0.86 0.90 0.89 0.75 0.67 0.65 0.69 0.50 0.45 0.51 0.65 0.82 0.95 0.89 0.90 0.90 0.86 0.90 0.89 0.72 0.62 0.63 0.61 0.65 0.80 1.03 1.22 1.32 1.31 1.23 1.13 1.32 1.26 1.05 0.96 1.05 1.10 1.13 1.18 1.34 1.39 1.34 1.23 1.11 1.00
1.43 1.48 1.20 0.98 0.85 0.90 0.84 0.77 0.66 0.67 0.56 0.44 0.44 0.57 0.77 0.89 0.95 0.96 0.91 0.93 0.92 0.92 0.95 0.83 0.64 0.55 0.58 0.60 0.66 0.73 0.94 1.06 1.04 1.19 1.13 1.18 1.17 1.06 0.98 0.99 1.15 1.15 1.19 1.40 1.52 1.38 1.30 1.30 1.23
1.26 1.21 1.16 0.99 0.91 0.93 0.94 0.77 0.66 0.78 0.67 0.56 0.61 0.72 0.88 0.95 0.94 0.90 0.84 0.82 0.81 0.81 0.84 0.79 0.69 0.64 0.60 0.57 0.55 0.57 0.61 0.77 0.79 0.81 0.79 0.98 1.12 1.10 1.12 1.03 1.11 1.26 1.32 1.37 1.43 1.38 1.30 1.28 1.30
1.04 1.12 1.26 1.15 1.11 1.07 0.95 1.02 0.80 0.80 0.79 0.68 0.66 0.71 0.91 0.88 0.85 0.81 0.75 0.69 0.64 0.69 0.70 0.73 0.74 0.74 0.70 0.67 0.66 0.61 0.62 0.65 0.72 0.80 0.80 0.91 1.03 1.10 1.11 1.01 1.06 1.23 1.42 1.40 1.38 1.33 1.35 1.22 1.17
1.19 1.47 1.72 1.41 1.21 1.18 1.08 1.21 0.88 0.88 0.83 0.72 0.68 0.66 0.74 0.65 0.65 0.67 0.63 0.57 0.54 0.53 0.53 0.60 0.63 0.67 0.70 0.72 0.75 0.70 0.73 0.74 0.71 0.78 0.77 0.79 0.94 1.09 1.18 1.11 1.07 1.23 1.44 1.61 1.66 1.54 1.47 1.36 1.29
1.51 1.60 1.53 1.44 1.15 1.17 1.09 1.12 0.95 0.82 0.77 0.67 0.65 0.65 0.60 0.55 0.52 0.55 0.53 0.47 0.42 0.41 0.38 0.42 0.48 0.55 0.62 0.68 0.75 0.74 0.77 0.90 0.97 0.87 0.75 0.80 0.92 1.03 1.24 1.33 1.28 1.31 1.48 1.55 1.56 1.59 1.49 1.48 1.43
1.22 1.22 1.22 1.29 1.08 1.01 0.98 0.91 0.92 0.77 0.62 0.56 0.56 0.56 0.52 0.50 0.43 0.43 0.44 0.42 0.38 0.36 0.33 0.35 0.43 0.45 0.47 0.57 0.72 0.82 0.79 0.87 1.08 1.12 1.11 1.15 1.21 1.25 1.39 1.50 1.50 1.50 1.57 1.55 1.67 1.86 1.67 1.50 1.51
0.90 0.90 0.96 0.89 0.75 0.86 0.87 0.81 0.86 0.79 0.64 0.51 0.47 0.51 0.47 0.44 0.44 0.38 0.34 0.39 0.36 0.32 0.29 0.31 0.38 0.41 0.42 0.49 0.60 0.70 0.79 0.97 1.18 1.24 1.31 1.46 1.47 1.48 1.60 1.71 1.75 1.68 1.60 1.67 1.84 2.20 2.08 1.72 1.56
0.83 0.82 0.86 0.76 0.66 0.69 0.78 0.83 0.81 0.74 0.66 0.55 0.47 0.39 0.38 0.38 0.36 0.31 0.29 0.30 0.29 0.28 0.25 0.27 0.36 0.46 0.50 0.54 0.67 0.82 1.05 1.16 1.32 1.48 1.46 1.50 1.55 1.59 1.65 1.85 1.97 1.90 1.89 1.98 2.02 2.27 2.42 2.13 1.94
0.80 0.74 0.69 0.72 0.68 0.66 0.72 0.92 0.87 0.79 0.66 0.54 0.46 0.36 0.29 0.33 0.31 0.24 0.25 0.27 0.25 0.25 0.28 0.29 0.41 0.63 0.81 0.89 1.10 1.38 1.63 1.70 1.64 1.64 1.70 1.68 1.71 1.78 1.75 1.85 2.04 2.03 2.00 2.04 2.23 2.54 2.84 2.74 2.47
0.82 0.57 0.50 0.61 0.73 0.82 0.68 0.95 0.83 0.77 0.70 0.53 0.45 0.40 0.32 0.34 0.38 0.29 0.27 0.29 0.26 0.27 0.36 0.52 0.74 1.03 1.27 1.39 1.56 1.78 1.89 1.92 1.86 1.88 1.87 1.85 1.76 1.69 1.69 1.81 2.01 2.16 2.26 2.34 2.40 2.40 2.75 2.99 2.82
0.64 0.52 0.51 0.61 0.71 0.73 0.62 0.73 0.69 0.62 0.68 0.58 0.53 0.48 0.43 0.42 0.41 0.41 0.40 0.45 0.45 0.54 0.73 1.02 1.27 1.48 1.62 1.67 1.74 1.93 2.07 2.23 2.26 2.15 2.01 1.90 1.86 1.79 1.69 1.74 1.81 1.86 1.96 2.10 2.24 2.30 2.53 2.71 2.85
0.52 0.59 0.63 0.65 0.73 0.82 0.58 0.58 0.69 0.58 0.57 0.60 0.60 0.53 0.47 0.45 0.46 0.56 0.67 0.79 0.89 0.98 1.16 1.36 1.48 1.61 1.60 1.60 1.64 1.76 1.94 2.11 2.14 2.17 2.14 2.00 1.88 1.77 1.66 1.61 1.69 1.72 1.73 1.87 1.99 2.09 2.34 2.52 2.63
0.57 0.73 0.92 0.94 0.90 0.78 0.49 0.57 0.60 0.43 0.41 0.48 0.54 0.52 0.49 0.46 0.54 0.74 0.89 1.04 1.15 1.25 1.35 1.37 1.34 1.38 1.41 1.40 1.42 1.48 1.55 1.59 1.65 1.76 1.70 1.57 1.46 1.41 1.39 1.30 1.36 1.50 1.54 1.73 1.80 1.75 1.81 1.99 2.20
0.52 0.55 0.79 0.90 0.80 0.69 0.54 0.70 0.63 0.45 0.42 0.40 0.44 0.51 0.59 0.70 0.81 0.93 1.02 1.13 1.17 1.29 1.34 1.28 1.23 1.22 1.15 1.10 1.13 1.13 1.17 1.22 1.25 1.27 1.22 1.15 1.11 1.08 1.05 1.04 1.05 1.13 1.20 1.42 1.64 1.63 1.63 1.70 1.79
0.45 0.44 0.46 0.62 0.61 0.64 0.59 0.70 0.64 0.44 0.41 0.40 0.41 0.50 0.64 0.82 1.06 1.23 1.22 1.13 1.06 1.11 1.18 1.14 1.08 1.01 0.93 0.87 0.91 0.93 0.99 1.01 0.98 0.95 0.90 0.90 0.83 0.83 0.81 0.85 0.94 1.00 0.99 1.09 1.24 1.42 1.49 1.55 1.62
0.35 0.38 0.47 0.69 0.81 0.83 0.71 0.78 0.72 0.54 0.49 0.45 0.49 0.61 0.77 0.92 1.12 1.39 1.52 1.40 1.13 0.97 0.99 0.94 0.91 0.92 0.89 0.85 0.87 0.86 0.79 0.72 0.71 0.73 0.67 0.67 0.72 0.75 0.75 0.72 0.73 0.81 0.84 0.93 1.05 1.10 1.21 1.29 1.44
0.35 0.40 0.50 0.65 0.67 0.88 1.12 1.12 0.83 0.72 0.65 0.64 0.68 0.74 0.80 1.02 1.31 1.45 1.48 1.35 1.18 0.91 0.84 0.82 0.79 0.82 0.86 0.80 0.83 0.84 0.73 0.60 0.56 0.53 0.49 0.51 0.54 0.59 0.59 0.62 0.68 0.70 0.73 0.75 0.76 0.80 0.87 0.94 1.04
0.32 0.40 0.54 0.81 0.82 0.78 0.98 1.03 0.66 0.69 0.80 0.75 0.81 0.90 0.91 0.95 0.98 0.98 1.08 1.09 1.02 0.90 0.83 0.88 0.91 0.91 0.83 0.76 0.75 0.75 0.67 0.57 0.58 0.52 0.44 0.47 0.52 0.54 0.54 0.58 0.62 0.62 0.68 0.71 0.70 0.69 0.72 0.82 0.91